User: anonymous   Login
Location: Ciechanow
(52.8812°N, 20.6195°E)
Time: 21:06:45
(UTC+01:00)
Language:

ISS - Orbit

View from above orbital plane
View from above orbital plane
View from above satellite
View from above satellite

Ground track
Ground track

The orbit data is extracted from the following two-line orbital elements,

1 25544U 98067A   19054.54477108  .00016717  00000-0  10270-3 0  9035
2 25544  51.6375 206.2871 0005712  59.5442 300.6274 15.53254633 37592
Epoch (UTC): 23 February 2019 13:04:28
Eccentricity: 0.0005712
inclination: 51.6375°
perigee height: 403 km
apogee height: 411 km
right ascension of ascending node: 206.2871°
argument of perigee: 59.5442°
revolutions per day: 15.53254633
mean anomaly at epoch: 300.6274°
orbit number at epoch: 3759

The dashed part of the orbit path shows where the satellite is in the earth's shadow,  

DLR